Regional Weather Roundup
Issued by NWS Burlington, VT

Home | Current Version | Previous Version | Text Only | Print | Product List | Glossary On
Versions: 1 2 3 4 5 6 7 8 9 10 11 12 13 14 15 16 17 18 19 20 21 22 23 24 25 26 27 28 29 30 31 32 33 34 35 36 37 38 39 40 41 42 43 44 45 46 47 48 49 50
000
ASUS41 KBTV 020010
RWRBTV
VERMONT REGIONAL WEATHER ROUNDUP
NATIONAL WEATHER SERVICE BURLINGTON VT
800 PM EDT WED APR 01 2015

NOTE: "FAIR" INDICATES FEW OR NO CLOUDS BELOW 12,000 FEET WITH NO
SIGNIFICANT WEATHER AND/OR OBSTRUCTIONS TO VISIBILITY.

* THESE REPORTS ARE NOT UNDER NWS QUALITY CONTROL AND/OR DO NOT
  REPORT WEATHER SUCH AS PRECIPITATION AND FOG.

VTZ001>019-020100-
_____VERMONT_____


CITY           SKY/WX    TMP DP  RH WIND       PRES   REMARKS
BURLINGTON     CLEAR     32   5  32 NE6       30.14R
6HR MIN TEMP:  32; 6HR MAX TEMP:  39;

MONTPELIER     CLEAR     27   5  39 NW3       30.13R
6HR MIN TEMP:  27; 6HR MAX TEMP:  32;

MORRISVILLE    CLEAR     28   8  43 CALM      30.13R
6HR MIN TEMP:  28; 6HR MAX TEMP:  35;

ST. JOHNSBURY*   N/A     30   7  37 MISG      30.10R
6HR MIN TEMP:  30; 6HR MAX TEMP:  36;

LYNDONVILLE*     N/A     27   1  32 W5        30.10R
6HR MIN TEMP:  27; 6HR MAX TEMP:  32;

MIDDLEBURY*      N/A     32  10  40 CALM      30.12R
6HR MIN TEMP:  32; 6HR MAX TEMP:  38;

RUTLAND*       CLEAR     34   7  32 NW5       30.11R
SPRINGFIELD    CLEAR     36   7  29 NW5       30.11R
6HR MIN TEMP:  35; 6HR MAX TEMP:  40;

HIGHGATE*        N/A     30   8  39 CALM      30.15R
6HR MIN TEMP:  30; 6HR MAX TEMP:  35;

NEWPORT*         N/A     26   7  45 W3        30.11R
6HR MIN TEMP:  26; 6HR MAX TEMP:  29;

BENNINGTON     CLEAR     36   8  31 VRB5      30.11R
6HR MIN TEMP:  36; 6HR MAX TEMP:  43;

SUTTON*          N/A     23 N/A N/A MISG        N/A

_____LAKE CHAMPLAIN_____


CITY           SKY/WX    TMP DP  RH WIND       PRES   REMARKS

$$

NYZ007-026>031-035-052-083-020100-
_____NORTHERN NEW YORK_____


CITY           SKY/WX    TMP DP  RH WIND       PRES   REMARKS
PLATTSBURGH    CLEAR     32   2  27 NW3       30.14R
6HR MIN TEMP:  32; 6HR MAX TEMP:  40;

SARANAC LAKE   CLEAR     28   2  32 W3        30.08R
6HR MIN TEMP:  28; 6HR MAX TEMP:  33;

MASSENA        CLEAR     31   9  39 S5        30.15F
6HR MIN TEMP:  30; 6HR MAX TEMP:  37;

OGDENSBURG*    CLEAR     32  16  51 SW6       30.15S
POTSDAM*       CLEAR     30  12  47 SW6       30.15S
WATERTOWN      CLEAR     31  14  49 S3        30.17F
6HR MIN TEMP:  31; 6HR MAX TEMP:  39;

FT DRUM        CLEAR     34  14  44 SW5       30.15F
6HR MIN TEMP:  32; 6HR MAX TEMP:  34;

ALBANY         PTCLDY    37   7  28 W15       30.15R
6HR MIN TEMP:  37; 6HR MAX TEMP:  47;

GLENS FALLS    CLEAR     36  14  40 NE6       30.13R
6HR MIN TEMP:  36; 6HR MAX TEMP:  44;


$$
NHZ002-005-011-020100-
_____NEW HAMPSHIRE_____


CITY           SKY/WX    TMP DP  RH WIND       PRES   REMARKS
LEBANON        CLEAR     32  13  45 NE3       30.10R
6HR MIN TEMP:  32; 6HR MAX TEMP:  42;

KEENE          CLEAR     36   5  27 CALM      30.10S
6HR MIN TEMP:  36; 6HR MAX TEMP:  43;

MT WASHINGTON  PTCLDY     3  -4  72 NW51        N/A  WCI -27
6HR MIN TEMP:   2; 6HR MAX TEMP:   6;

PLYMOUTH         N/A     33  10  39 NW6       30.09R
6HR MIN TEMP:  33; 6HR MAX TEMP:  39;

WHITEFIELD     CLEAR     28   4  35 CALM      30.09R
6HR MIN TEMP:  28; 6HR MAX TEMP:  34;


$$

_____REGIONAL QUEBEC LOCATIONS_____


CITY           SKY/WX    TMP DP  RH WIND       PRES   REMARKS
MONTREAL       PTCLDY    32  12  43 W13       30.13R
QUEBEC CITY    CLEAR     25  10  54 SW12      30.05R WCI  14
SHERBROOKE     CLEAR     27   9  46 W7        30.08R

_____REGIONAL ONTARIO LOCATIONS_____


CITY           SKY/WX    TMP DP  RH WIND       PRES   REMARKS
OTTAWA         PTCLDY    30   5  34 SE6       30.12F

______KEY______
VSB  - VISIBILITY IN MILES
WCI  - WIND CHILL INDEX
HX   - HEAT INDEX
$$
NNNN



USA.gov is the U.S. government's official web portal to all federal, state and local government web resources and services.